Las Vegas, NM

4:57 AM MDT on June 27, 2017 (GMT -0600)
Las Vegas Municipal

Weather History for KLVS - May, 2013

Change the Weather History Date:

Sunday, May 26, 2013

  Actual Average Record
Temperature  
Mean Temperature 64 °F -  
Max Temperature 82 °F 73 °F 86 °F (1953)
Min Temperature 48 °F 44 °F 34 °F (1950)
Growing Degree Days 14 (Base 50)    
Moisture  
Dew Point 16 °F    
Average Humidity 24    
Maximum Humidity 68    
Minimum Humidity 4    
Precipitation  
Precipitation 0.00 in - - ()
Sea Level Pressure  
Sea Level Pressure 29.80 in    
Wind  
Wind Speed 13 mph (SW)    
Max Wind Speed 29 mph    
Max Gust Speed 39 mph    
Visibility 10 miles    
Events      
Averages and records for this station are not official NWS values.
T = Trace of Precipitation, MM = Missing Value Source: NWS Daily Summary

Daily Weather History Graph

Daily Weather History Graph

Search for Another Location

Airport or City:

Trip Planner

Search our weather history database for the weather conditions in past years. The results will help you decide how hot, cold, wet, or windy it might be!

Date:

Astronomy

May. 26, 2013 Rise Set
Actual Time 5:48 AM MDT 8:07 PM MDT
Civil Twilight 5:19 AM MDT 8:36 PM MDT
Nautical Twilight 4:43 AM MDT 9:12 PM MDT
Astronomical Twilight 4:04 AM MDT 9:51 PM MDT
Moon 9:58 PM MDT (5/26) 7:19 AM MDT (5/26)
Length of Visible Light 15h 17m
Length of Day
14h 18m
Waning Gibbous, 96% of the Moon is Illuminated
May 26
Waning Gibbous
May 31
Last Quarter
Jun 8
New
Jun 16
First Quarter
Jun 23
Full

Hourly Weather History & Observations

Time (MDT) Temp. Dew Point Humidity Pressure Visibility Wind Dir Wind Speed Gust Speed Precip Events Conditions
12:53 AM 57.9 °F 39.9 °F 51% 29.81 in 10.0 mi South 13.8 mph - N/A   Clear
1:53 AM 52.0 °F 39.0 °F 61% 29.82 in 10.0 mi SSW 9.2 mph - N/A   Clear
2:53 AM 54.0 °F 39.9 °F 59% 29.82 in 10.0 mi South 11.5 mph - N/A   Clear
3:53 AM 50.0 °F 39.0 °F 66% 29.83 in 10.0 mi SSW 11.5 mph - N/A   Clear
4:53 AM 48.0 °F 37.9 °F 68% 29.83 in 10.0 mi WSW 5.8 mph - N/A   Clear
5:53 AM 48.9 °F 37.9 °F 66% 29.87 in 10.0 mi NNE 3.5 mph - N/A   Clear
6:53 AM 52.0 °F 36.0 °F 54% 29.86 in 10.0 mi North 6.9 mph - N/A   Clear
7:53 AM 60.1 °F 27.0 °F 28% 29.85 in 10.0 mi NNW 3.5 mph - N/A   Clear
8:53 AM 66.9 °F 23.0 °F 19% 29.85 in 10.0 mi South 5.8 mph - N/A   Clear
9:53 AM 75.0 °F 15.1 °F 10% 29.81 in 10.0 mi West 23.0 mph 32.2 mph N/A   Clear
10:53 AM 75.9 °F 12.0 °F 9% 29.79 in 10.0 mi WSW 24.2 mph 39.1 mph N/A   Clear
11:53 AM 78.1 °F 9.0 °F 7% 29.80 in 10.0 mi WSW 17.3 mph 27.6 mph N/A   Clear
12:53 PM 80.1 °F 7.0 °F 6% 29.80 in 10.0 mi SW 19.6 mph 32.2 mph N/A   Clear
1:53 PM 79.0 °F 6.1 °F 6% 29.80 in 10.0 mi SW 20.7 mph 31.1 mph N/A   Clear
2:53 PM 79.0 °F 1.9 °F 5% 29.78 in 10.0 mi SSW 18.4 mph 34.5 mph N/A   Clear
3:53 PM 80.1 °F 1.9 °F 5% 29.78 in 10.0 mi SW 23.0 mph 33.4 mph N/A   Clear
4:53 PM 81.0 °F -2.0 °F 4% 29.76 in 10.0 mi SW 23.0 mph 35.7 mph N/A   Clear
5:53 PM 80.1 °F -0.0 °F 4% 29.75 in 10.0 mi SSW 28.8 mph 36.8 mph N/A   Clear
6:53 PM 77.0 °F 1.9 °F 5% 29.75 in 10.0 mi SW 20.7 mph 31.1 mph N/A   Clear
7:53 PM 73.0 °F 3.0 °F 6% 29.75 in 10.0 mi WSW 10.4 mph - N/A   Clear
8:53 PM 64.9 °F 3.9 °F 9% 29.76 in 10.0 mi South 5.8 mph - N/A   Clear
9:53 PM 62.1 °F 5.0 °F 10% 29.75 in 10.0 mi South 9.2 mph - N/A   Clear
10:53 PM 60.1 °F 6.1 °F 12% 29.75 in 10.0 mi SSW 8.1 mph - N/A   Clear
11:53 PM 55.9 °F 3.9 °F 12% 29.74 in 10.0 mi South 12.7 mph - N/A   Clear